EW0867 Weather Reports


Display with metric or nautical units.
time (UTC)temp
F
wind
direction
speed
MPH
gust
MPH
rain 1hr
in
rain 24hr
in
rain mn
in
humidity
%
barometer
mb
20260506102002 61 147 0.0 5.0 0.04 0.91 0.06 94 1008.1
20260506101502 60 107 1.0 7.0 0.04 0.91 0.06 94 1008.1
20260506101004 60 167 0.0 9.0 0.04 0.91 0.06 95 1008.0
20260506100505 60 134 1.0 9.0 0.04 0.91 0.06 95 1008.1
20260506100007 60 38 1.0 4.0 0.04 0.91 0.06 96 1008.1
20260506095507 59 100 0.0 0.0 0.00 0.91 0.06 96 1008.1
20260506095009 0 0.0 0.0 0.00 0.91 0.06 1008.1
20260506094515 0 0.0 0.0 0.00 0.91 0.06 1008.1
20260506094016 0 0.0 0.0 0.00 0.91 0.06 1008.1
20260506093013 0 0.0 0.0 0.00 0.91 0.06 1008.1
20260506092534 0 0.0 0.0 0.00 0.91 0.06 1008.0
20260506092013 0 0.0 0.0 0.00 0.91 0.06 1008.0
20260506091516 0 0.0 0.0 0.00 0.91 0.06 1008.0
20260506091017 0 0.0 0.0 0.00 0.91 0.06 1008.0
20260506090518 0 0.0 0.0 0.00 0.91 0.06 1008.1
20260506085959 0 0.0 0.0 0.00 0.91 0.06 1008.0
20260506085524 0 0.0 0.0 0.00 0.94 0.06 1007.9
20260506085011 0 0.0 0.0 0.00 0.94 0.06 1007.9
20260506084459 0 0.0 0.0 0.00 0.94 0.06 1007.8
20260506084006 0 0.0 0.0 0.00 0.94 0.06 1007.6
20260506083508 0 0.0 0.0 0.00 0.94 0.06 1008.0
20260506083013 0 0.0 0.0 0.00 0.94 0.06 1008.4
20260506082514 0 0.0 0.0 0.00 0.94 0.06 1008.7
20260506082035 0 0.0 0.0 0.00 0.94 0.06 1008.8
20260506081536 0 0.0 0.0 0.00 0.94 0.06 1008.9
20260506080511 0 0.0 0.0 0.00 0.94 0.06 1008.7
20260506073008 0 0.0 0.0 0.00 1.18 0.06 1008.3
20260506072508 0 0.0 0.0 0.00 1.18 0.06 1008.3
20260506072009 0 0.0 0.0 0.00 1.18 0.06 1008.2
20260506071510 0 0.0 0.0 0.00 1.18 0.06 1008.2
20260506071011 0 0.0 0.0 0.00 1.18 0.06 1008.1
20260506070512 0 0.0 0.0 0.00 1.18 0.06 1008.1
20260506062501 0 0.0 0.0 0.00 1.61 0.06 1008.5
20260506062021 0 0.0 0.0 0.00 1.61 0.06 1008.7
20260506061501 0 0.0 0.0 0.00 1.61 0.06 1008.5
20260506060459 0 0.0 0.0 0.00 1.61 0.06 1008.7
20260506051005 0 0.0 0.0 0.00 2.09 0.06 1008.5
20260506050505 0 0.0 0.0 0.00 2.09 0.06 1008.5
20260506045000 56 156 0.0 0.0 0.04 2.09 0.06 97 1008.7
20260506044501 56 157 0.0 0.0 0.04 2.09 0.06 96 1008.9
20260506044006 56 144 0.0 0.0 0.04 2.09 0.06 96 1009.0
20260506043506 56 135 0.0 0.0 0.04 2.09 0.06 96 1009.1
20260506043008 56 150 0.0 0.0 0.04 2.09 0.06 96 1009.2
20260506042528 56 157 0.0 0.0 0.04 2.09 0.06 96 1009.2
20260506042009 56 150 0.0 0.0 0.04 2.09 0.06 96 1009.2
20260506041509 56 161 0.0 0.0 0.04 2.09 0.06 96 1009.3
20260506041011 56 165 0.0 0.0 0.04 2.09 0.06 96 1009.4
20260506040511 56 169 0.0 0.0 0.04 2.09 0.06 96 1009.4
20260506040013 56 143 0.0 0.0 0.04 2.09 0.06 96 1009.4
20260506035518 56 146 0.0 0.0 0.04 2.09 0.06 96 1009.5
20260506035000 56 146 0.0 0.0 0.00 2.05 0.05 96 1009.6
20260506034500 56 150 0.0 0.0 0.00 2.05 0.05 96 1009.5
20260506034021 56 150 0.0 0.0 0.04 2.05 0.05 96 1009.5
20260506033500 56 158 0.0 0.0 0.04 2.05 0.05 96 1009.4
20260506033005 56 144 0.0 0.0 0.04 2.05 0.05 96 1009.3
20260506032526 56 148 0.0 0.0 0.04 2.05 0.05 96 1009.4
20260506032007 56 148 0.0 0.0 0.04 2.05 0.05 96 1009.4
20260506031507 56 148 0.0 0.0 0.04 2.05 0.05 96 1009.4
20260506031029 56 163 0.0 0.0 0.04 2.05 0.05 96 1009.5
20260506030529 56 165 0.0 0.0 0.04 2.05 0.05 96 1009.6
20260506030009 56 165 0.0 0.0 0.04 2.05 0.05 96 1009.8
20260506025509 56 49 0.0 0.0 0.04 2.05 0.05 96 1009.6
20260506025014 56 157 0.0 0.0 0.04 2.05 0.05 96 1010.0
20260506024459 56 112 0.0 0.0 0.00 2.01 0.04 96 1010.2
20260506024005 56 112 0.0 0.0 0.00 2.01 0.04 96 1010.3
20260506023508 56 111 0.0 0.0 0.00 2.01 0.04 96 1010.3
20260506023010 56 96 0.0 0.0 0.00 2.01 0.04 96 1010.3
20260506022510 56 95 0.0 0.0 0.00 2.01 0.04 96 1010.3
20260506022011 56 86 0.0 0.0 0.00 2.01 0.04 96 1010.2
20260506021511 56 85 0.0 0.0 0.00 2.01 0.04 96 1010.4
20260506021013 56 154 0.0 0.0 0.00 2.01 0.04 96 1010.5
20260506020534 56 154 0.0 0.0 0.00 2.01 0.04 96 1010.5
20260506020034 56 46 0.0 0.0 0.04 2.01 0.04 96 1010.5
20260506015514 56 46 0.0 0.0 0.04 2.01 0.04 96 1010.6
20260506015000 56 46 0.0 0.0 0.04 2.01 0.04 96 1010.6
20260506014504 56 46 0.0 0.0 0.04 2.01 0.04 96 1010.6
20260506014006 56 46 0.0 0.0 0.04 2.01 0.04 96 1010.5
20260506013506 56 46 0.0 0.0 0.04 2.01 0.04 96 1010.4
20260506013012 56 160 0.0 0.0 0.04 2.01 0.04 96 1010.4
20260506012512 56 167 0.0 0.0 0.04 2.01 0.04 96 1010.4
20260506012033 56 167 0.0 0.0 0.04 2.01 0.04 96 1010.4
20260506011513 56 168 0.0 0.0 0.08 2.01 0.04 96 1010.5
20260506011015 56 168 0.0 0.0 0.08 2.01 0.04 96 1010.5
20260506010455 56 81 0.0 0.0 0.08 2.01 0.04 96 1010.5
20260506010021 56 81 0.0 0.0 0.04 1.97 0.03 96 1010.4
20260506005501 56 82 0.0 0.0 0.04 1.97 0.03 96 1010.4
20260506005002 56 140 0.0 0.0 0.04 1.97 0.03 96 1010.5
20260506004523 56 143 0.0 0.0 0.04 1.97 0.03 96 1010.7
20260506004006 56 110 0.0 0.0 0.04 1.97 0.03 96 1010.9
20260506003506 57 110 0.0 0.0 0.04 1.97 0.03 96 1010.9
20260506003009 57 136 0.0 0.0 0.04 1.97 0.03 96 1011.1
20260506002509 57 136 0.0 0.0 0.04 1.97 0.03 96 1010.9
20260506002011 57 137 0.0 0.0 0.04 1.97 0.03 96 1011.1
20260506001518 57 142 0.0 0.0 0.00 1.93 0.02 96 1011.2
20260506001000 57 142 0.0 0.0 0.00 1.93 0.02 96 1011.2
20260506000501 57 143 0.0 0.0 0.00 1.93 0.02 96 1011.3
20260506000002 57 157 0.0 0.0 0.04 1.93 0.02 96 1011.3
20260505235503 57 157 0.0 0.0 0.04 1.93 0.02 96 1011.4
20260505235005 57 157 0.0 0.0 0.04 1.93 0.02 96 1011.4
20260505234525 57 157 0.0 0.0 0.04 1.93 0.02 96 1011.4
20260505234006 57 157 0.0 0.0 0.04 1.93 0.02 96 1011.5
20260505233506 57 157 0.0 0.0 0.04 1.93 0.02 96 1011.5
20260505233007 57 164 0.0 0.0 0.08 1.93 0.02 96 1011.6
20260505232507 57 165 0.0 0.0 0.08 1.93 0.02 95 1011.8
20260505232009 57 164 0.0 0.0 0.08 1.93 0.02 95 1011.7
20260505231530 57 164 0.0 0.0 0.08 1.93 0.02 95 1011.7
20260505230001 57 80 0.0 0.0 0.08 1.89 0.02 95 1011.6
20260505225040 57 80 0.0 0.0 0.08 1.89 0.02 95 1011.8
20260505211454 57 135 0.0 0.0 0.16 1.69 0.34 95 1012.5
20260505210957 57 135 0.0 0.0 0.20 1.69 0.34 95 1012.5
20260505210502 57 135 0.0 0.0 0.20 1.69 0.34 95 1012.5
20260505210004 58 135 0.0 0.0 0.24 1.69 0.34 95 1012.5
20260505205506 57 135 0.0 0.0 0.20 1.65 0.33 95 1012.6
20260505205029 57 135 0.0 0.0 0.16 1.61 0.32 95 1012.6
20260505204512 57 135 0.0 0.0 0.16 1.61 0.32 95 1012.6
20260505203954 57 135 0.0 0.0 0.20 1.61 0.32 95 1012.7
20260505203536 57 135 0.0 0.0 0.20 1.61 0.32 95 1012.7
20260505202958 57 135 0.0 0.0 0.20 1.57 0.31 95 1012.7
20260505202502 57 135 0.0 0.0 0.16 1.54 0.31 95 1012.7
20260505202004 57 139 0.0 0.0 0.16 1.54 0.31 95 1012.7
20260505201002 57 139 0.0 0.0 0.12 1.50 0.30 94 1012.7
20260505200020 57 139 0.0 0.0 0.12 1.46 0.29 94 1012.8
20260505195521 57 139 0.0 0.0 0.12 1.46 0.29 94 1012.7
20260505195022 57 139 0.0 0.0 0.12 1.46 0.29 94 1012.7
20260505194523 58 139 0.0 0.0 0.12 1.46 0.29 94 1012.7
20260505194008 58 139 0.0 0.0 0.08 1.42 0.28 94 1012.6
20260505193509 58 139 0.0 0.0 0.08 1.42 0.28 94 1012.6
20260505192912 58 139 0.0 0.0 0.04 1.38 0.28 94 1012.6
20260505192437 58 139 0.0 0.0 0.04 1.38 0.28 94 1012.5
20260505191918 58 139 0.0 0.0 0.04 1.38 0.28 94 1012.5
20260505190427 58 146 0.0 0.0 0.04 1.38 0.28 93 1012.4
20260505185423 58 146 0.0 0.0 0.04 1.34 0.27 93 1012.3
20260505184926 58 148 0.0 0.0 0.04 1.34 0.27 93 1012.3
20260505184431 58 140 0.0 0.0 0.04 1.34 0.27 93 1012.2
20260505183913 58 88 0.0 0.0 0.04 1.34 0.27 93 1012.2
20260505183418 58 88 0.0 0.0 0.04 1.34 0.27 93 1012.2
20260505182921 58 88 0.0 0.0 0.04 1.34 0.27 93 1012.2
20260505182421 58 88 0.0 0.0 0.04 1.34 0.27 93 1012.2
20260505181922 58 88 0.0 0.0 0.04 1.34 0.27 93 1012.1
20260505181423 58 90 0.0 0.0 0.04 1.34 0.27 93 1012.1
20260505180927 58 90 0.0 0.0 0.04 1.34 0.27 93 1012.2
20260505180428 58 91 0.0 0.0 0.04 1.34 0.27 93 1012.1
20260505175930 58 114 0.0 0.0 0.04 1.34 0.27 92 1012.2
20260505175450 58 113 0.0 0.0 0.00 1.30 0.26 92 1012.1
20260505174936 58 111 0.0 0.0 0.00 1.30 0.26 92 1012.1
20260505174421 58 112 0.0 0.0 0.00 1.30 0.26 92 1012.1
20260505173947 58 131 0.0 0.0 0.00 1.30 0.26 92 1012.2
20260505173427 58 132 0.0 0.0 0.00 1.30 0.26 91 1012.2
20260505172435 58 118 0.0 0.0 0.00 1.30 0.26 91 1012.2
20260505171937 58 107 0.0 0.0 0.00 1.30 0.26 91 1012.2
20260505171442 58 107 0.0 0.0 0.00 1.30 0.26 91 1012.2
20260505170944 58 142 0.0 0.0 0.00 1.30 0.26 91 1012.1
20260505170504 58 144 0.0 0.0 0.00 1.30 0.26 91 1012.2
20260505165945 58 153 0.0 0.0 0.00 1.30 0.26 91 1012.1
20260505165430 58 111 0.0 0.0 0.00 1.30 0.26 91 1012.2
20260505164935 58 105 0.0 0.0 0.00 1.30 0.26 91 1012.2
20260505164435 58 127 0.0 0.0 0.00 1.30 0.26 91 1012.3
20260505163936 58 166 0.0 0.0 0.00 1.30 0.26 91 1012.3
20260505163436 58 171 0.0 0.0 0.00 1.30 0.26 91 1012.3
20260505163002 59 155 0.0 0.0 0.00 1.30 0.26 91 1012.3
20260505162441 58 155 0.0 0.0 0.00 1.30 0.26 91 1012.3
20260505161942 59 152 0.0 0.0 0.00 1.30 0.26 90 1012.4
20260505161446 59 159 0.0 0.0 0.00 1.30 0.26 90 1012.4
20260505160947 59 155 0.0 0.0 0.00 1.30 0.26 90 1012.4
20260505160451 59 155 0.0 0.0 0.00 1.30 0.26 90 1012.4
20260505152946 59 159 0.0 0.0 0.00 1.30 0.26 89 1012.6
20260505152451 59 157 0.0 0.0 0.00 1.30 0.26 89 1012.5
20260505151952 59 138 0.0 0.0 0.00 1.30 0.26 89 1012.5
20260505151453 59 137 0.0 0.0 0.00 1.30 0.26 89 1012.5
20260505150934 59 139 0.0 0.0 0.00 1.30 0.26 88 1012.5
20260505150434 59 137 0.0 0.0 0.00 1.30 0.26 88 1012.5
20260505140500 59 131 0.0 0.0 0.00 1.30 0.26 88 1012.7
20260505124942 59 170 0.0 0.0 0.00 1.30 0.26 88 1013.0
20260505124447 59 159 0.0 0.0 0.00 1.30 0.26 88 1013.0
20260505123953 59 150 0.0 0.0 0.00 1.30 0.26 89 1013.0
20260505123453 59 150 0.0 0.0 0.00 1.30 0.26 90 1013.0
20260505122934 59 151 0.0 0.0 0.00 1.30 0.26 90 1012.9
20260505122435 59 85 0.0 0.0 0.00 1.30 0.26 91 1012.9
20260505121936 58 65 0.0 0.0 0.00 1.30 0.26 91 1013.0
20260505121436 58 74 0.0 0.0 0.00 1.30 0.26 92 1013.0
20260505120941 58 61 0.0 0.0 0.00 1.30 0.26 92 1013.0
20260505120501 58 65 0.0 0.0 0.00 1.30 0.26 92 1012.9
20260505115942 58 148 0.0 0.0 0.00 1.30 0.26 93 1013.0
20260505115443 58 173 0.0 0.0 0.00 1.30 0.26 93 1013.0
20260505114945 58 65 0.0 0.0 0.00 1.30 0.26 93 1013.0
20260505114445 58 24 0.0 0.0 0.00 1.30 0.26 93 1012.9
20260505113946 57 338 0.0 0.0 0.00 1.30 0.26 93 1012.9
20260505113451 57 341 0.0 0.0 0.00 1.30 0.26 93 1013.0
20260505112953 57 346 0.0 0.0 0.00 1.30 0.26 94 1013.0
20260505112453 57 351 0.0 0.0 0.00 1.30 0.26 94 1013.0
20260505111934 57 349 0.0 0.0 0.00 1.30 0.26 94 1013.0
20260505111435 57 346 0.0 0.0 0.00 1.30 0.26 94 1013.1
20260505110936 56 10 0.0 0.0 0.04 1.30 0.26 94 1013.1
20260505110436 56 10 0.0 0.0 0.04 1.30 0.26 94 1013.2